Time,TemperatureF,DewpointF,PressureIn,WindDirection,WindDirectionDegrees,WindSpeedMPH,WindSpeedGustMPH,Humidity,HourlyPrecipIn,Conditions,Clouds,dailyrainin,SoftwareType,DateUTC
2013-04-15 05:47:00,35.1,29.6,30.29,South,170,0.0,15.0,80,0.00,,,0.00,Wunderground v.1.15,2013-04-15 09:47:00,
2013-04-15 05:55:00,34.9,29.4,30.30,South,171,0.0,15.0,80,0.00,,,0.00,Wunderground v.1.15,2013-04-15 09:55:00,
2013-04-15 06:00:00,34.8,29.6,30.30,South,170,0.0,15.0,81,0.00,,,0.00,Wunderground v.1.15,2013-04-15 10:00:00,
2013-04-15 06:05:00,34.9,30.0,30.31,South,170,0.0,15.0,82,0.00,,,0.00,Wunderground v.1.15,2013-04-15 10:05:00,
2013-04-15 06:15:00,34.9,30.0,30.32,South,171,0.0,15.0,82,0.00,,,0.00,Wunderground v.1.15,2013-04-15 10:15:00,
2013-04-15 06:20:00,34.9,30.0,30.32,South,170,0.0,15.0,82,0.00,,,0.00,Wunderground v.1.15,2013-04-15 10:20:00,
2013-04-15 06:30:00,34.8,29.6,30.32,South,170,0.0,15.0,81,0.00,,,0.00,Wunderground v.1.15,2013-04-15 10:30:00,
2013-04-15 06:35:00,34.8,29.6,30.32,South,170,0.0,15.0,81,0.00,,,0.00,Wunderground v.1.15,2013-04-15 10:35:00,
2013-04-15 06:45:00,34.7,28.9,30.33,South,170,0.0,15.0,79,0.00,,,0.00,Wunderground v.1.15,2013-04-15 10:45:00,
2013-04-15 06:50:00,34.8,29.0,30.33,SW,224,0.0,15.0,79,0.00,,,0.00,Wunderground v.1.15,2013-04-15 10:50:00,
2013-04-15 07:00:00,35.0,29.5,30.33,SW,225,0.0,15.0,80,0.00,,,0.00,Wunderground v.1.15,2013-04-15 11:00:00,
2013-04-15 07:10:00,35.2,29.3,30.34,SW,226,0.0,15.0,79,0.00,,,0.00,Wunderground v.1.15,2013-04-15 11:10:00,
2013-04-15 07:20:00,35.7,30.1,30.34,SW,233,0.0,15.0,80,0.00,,,0.00,Wunderground v.1.15,2013-04-15 11:20:00,
2013-04-15 07:30:00,36.1,29.9,30.35,WNW,288,1.0,15.0,78,0.00,,,0.00,Wunderground v.1.15,2013-04-15 11:30:00,
2013-04-15 07:40:00,36.8,29.6,30.35,NNW,334,0.0,15.0,75,0.00,,,0.00,Wunderground v.1.15,2013-04-15 11:40:00,
2013-04-15 07:50:00,37.8,30.3,30.35,WNW,284,0.0,15.0,74,0.00,,,0.00,Wunderground v.1.15,2013-04-15 11:50:00,
2013-04-15 08:00:00,38.5,28.9,30.35,NW,312,1.0,15.0,68,0.00,,,0.00,Wunderground v.1.15,2013-04-15 12:00:00,
2013-04-15 08:05:00,38.7,29.4,30.34,WNW,287,1.0,15.0,69,0.00,,,0.00,Wunderground v.1.15,2013-04-15 12:05:00,
2013-04-15 08:15:00,39.5,29.8,30.35,WNW,291,1.0,15.0,68,0.00,,,0.00,Wunderground v.1.15,2013-04-15 12:15:00,
2013-04-15 08:25:00,40.4,30.3,30.35,WNW,300,1.0,15.0,67,0.00,,,0.00,Wunderground v.1.15,2013-04-15 12:25:00,
2013-04-15 08:35:00,41.5,31.0,30.35,WNW,294,1.0,15.0,66,0.00,,,0.00,Wunderground v.1.15,2013-04-15 12:35:00,
2013-04-15 08:45:00,43.1,31.4,30.36,NW,318,0.0,15.0,63,0.00,,,0.00,Wunderground v.1.15,2013-04-15 12:45:00,
2013-04-15 08:55:00,44.1,31.9,30.36,East,84,0.0,15.0,62,0.00,,,0.00,Wunderground v.1.15,2013-04-15 12:55:00,
2013-04-15 09:05:00,44.8,32.6,30.37,ENE,62,0.0,15.0,62,0.00,,,0.00,Wunderground v.1.15,2013-04-15 13:05:00,
2013-04-15 09:15:00,44.7,31.2,30.37,NE,46,3.0,15.0,59,0.00,,,0.00,Wunderground v.1.15,2013-04-15 13:15:00,
2013-04-15 09:25:00,45.4,32.3,30.37,North,354,2.0,3.0,60,0.00,,,0.00,Wunderground v.1.15,2013-04-15 13:25:00,
2013-04-15 09:35:00,46.1,31.7,30.38,ESE,108,2.0,5.0,57,0.00,,,0.00,Wunderground v.1.15,2013-04-15 13:35:00,
2013-04-15 09:45:00,46.4,32.0,30.38,NNE,27,3.0,15.0,57,0.00,,,0.00,Wunderground v.1.15,2013-04-15 13:45:00,
2013-04-15 09:50:00,46.4,32.4,30.38,NE,51,3.0,3.0,58,0.00,,,0.00,Wunderground v.1.15,2013-04-15 13:50:00,
2013-04-15 10:00:00,47.0,31.7,30.38,East,84,2.0,15.0,55,0.00,,,0.00,Wunderground v.1.15,2013-04-15 14:00:00,
2013-04-15 10:10:00,48.2,32.8,30.38,SSE,164,1.0,15.0,55,0.00,,,0.00,Wunderground v.1.15,2013-04-15 14:10:00,
2013-04-15 10:25:00,49.1,32.2,30.38,SE,134,1.0,15.0,52,0.00,,,0.00,Wunderground v.1.15,2013-04-15 14:25:00,
2013-04-15 10:35:00,50.5,33.5,30.37,NE,37,1.0,3.0,52,0.00,,,0.00,Wunderground v.1.15,2013-04-15 14:35:00,
2013-04-15 10:45:00,50.4,32.4,30.37,NW,323,1.0,15.0,50,0.00,,,0.00,Wunderground v.1.15,2013-04-15 14:45:00,
2013-04-15 11:00:00,50.3,30.8,30.37,East,89,3.0,15.0,47,0.00,,,0.00,Wunderground v.1.15,2013-04-15 15:00:00,
2013-04-15 11:05:00,50.2,31.2,30.37,NE,39,3.0,15.0,48,0.00,,,0.00,Wunderground v.1.15,2013-04-15 15:05:00,
2013-04-15 11:15:00,51.0,32.0,30.37,WSW,240,2.0,15.0,48,0.00,,,0.00,Wunderground v.1.15,2013-04-15 15:15:00,
2013-04-15 11:30:00,52.4,31.1,30.37,SW,235,1.0,1.0,44,0.00,,,0.00,Wunderground v.1.15,2013-04-15 15:30:00,
2013-04-15 11:35:00,52.2,30.9,30.37,East,83,2.0,3.0,44,0.00,,,0.00,Wunderground v.1.15,2013-04-15 15:35:00,
2013-04-15 11:45:00,52.0,30.7,30.37,WSW,240,2.0,15.0,44,0.00,,,0.00,Wunderground v.1.15,2013-04-15 15:45:00,
2013-04-15 11:55:00,52.6,31.3,30.36,SW,229,1.0,15.0,44,0.00,,,0.00,Wunderground v.1.15,2013-04-15 15:55:00,
2013-04-15 12:05:00,52.8,31.5,30.36,NNE,27,1.0,15.0,44,0.00,,,0.00,Wunderground v.1.15,2013-04-15 16:05:00,
2013-04-15 12:15:00,52.2,32.0,30.36,ENE,77,3.0,15.0,46,0.00,,,0.00,Wunderground v.1.15,2013-04-15 16:15:00,
2013-04-15 12:20:00,52.1,30.8,30.36,NE,40,3.0,15.0,44,0.00,,,0.00,Wunderground v.1.15,2013-04-15 16:20:00,
2013-04-15 12:25:00,52.3,31.6,30.36,ESE,111,3.0,15.0,45,0.00,,,0.00,Wunderground v.1.15,2013-04-15 16:25:00,
2013-04-15 12:35:00,52.9,31.6,30.36,SSW,197,2.0,15.0,44,0.00,,,0.00,Wunderground v.1.15,2013-04-15 16:35:00,
2013-04-15 12:45:00,53.2,32.4,30.35,SE,131,2.0,15.0,45,0.00,,,0.00,Wunderground v.1.15,2013-04-15 16:45:00,
2013-04-15 12:50:00,53.4,32.0,30.35,SSE,166,3.0,3.0,44,0.00,,,0.00,Wunderground v.1.15,2013-04-15 16:50:00,
2013-04-15 13:00:00,54.1,32.6,30.35,SSW,205,2.0,15.0,44,0.00,,,0.00,Wunderground v.1.15,2013-04-15 17:00:00,
2013-04-15 13:10:00,54.8,33.3,30.35,SSW,211,2.0,2.0,44,0.00,,,0.00,Wunderground v.1.15,2013-04-15 17:10:00,
2013-04-15 13:20:00,53.7,32.8,30.35,ESE,114,3.0,15.0,45,0.00,,,0.00,Wunderground v.1.15,2013-04-15 17:20:00,
2013-04-15 13:25:00,52.8,32.6,30.35,East,89,4.0,15.0,46,0.00,,,0.00,Wunderground v.1.15,2013-04-15 17:25:00,
2013-04-15 13:30:00,52.3,32.1,30.35,ESE,111,5.0,5.0,46,0.00,,,0.00,Wunderground v.1.15,2013-04-15 17:30:00,
2013-04-15 13:35:00,52.2,32.6,30.35,East,84,4.0,15.0,47,0.00,,,0.00,Wunderground v.1.15,2013-04-15 17:35:00,
2013-04-15 13:40:00,52.4,33.3,30.35,East,96,3.0,15.0,48,0.00,,,0.00,Wunderground v.1.15,2013-04-15 17:40:00,
2013-04-15 13:45:00,52.5,32.8,30.35,SSE,149,4.0,15.0,47,0.00,,,0.00,Wunderground v.1.15,2013-04-15 17:45:00,
2013-04-15 13:55:00,53.3,33.0,30.34,SE,138,3.0,15.0,46,0.00,,,0.00,Wunderground v.1.15,2013-04-15 17:55:00,
2013-04-15 14:05:00,52.6,34.0,30.34,SE,132,4.0,15.0,49,0.00,,,0.00,Wunderground v.1.15,2013-04-15 18:05:00,
2013-04-15 14:10:00,52.8,33.1,30.34,SE,127,3.0,15.0,47,0.00,,,0.00,Wunderground v.1.15,2013-04-15 18:10:00,
2013-04-15 14:20:00,53.1,33.9,30.34,East,88,3.0,15.0,48,0.00,,,0.00,Wunderground v.1.15,2013-04-15 18:20:00,
2013-04-15 14:30:00,53.2,32.9,30.34,ESE,120,3.0,15.0,46,0.00,,,0.00,Wunderground v.1.15,2013-04-15 18:30:00,
2013-04-15 14:35:00,53.4,33.1,30.34,ESE,103,3.0,15.0,46,0.00,,,0.00,Wunderground v.1.15,2013-04-15 18:35:00,
2013-04-15 14:40:00,53.1,32.8,30.33,ENE,66,4.0,4.0,46,0.00,,,0.00,Wunderground v.1.15,2013-04-15 18:40:00,
2013-04-15 14:45:00,53.1,33.9,30.33,NE,51,4.0,15.0,48,0.00,,,0.00,Wunderground v.1.15,2013-04-15 18:45:00,
2013-04-15 14:50:00,53.0,32.8,30.33,East,81,4.0,15.0,46,0.00,,,0.00,Wunderground v.1.15,2013-04-15 18:50:00,
2013-04-15 15:00:00,53.2,32.9,30.33,NE,34,3.0,15.0,46,0.00,,,0.00,Wunderground v.1.15,2013-04-15 19:00:00,
2013-04-15 15:10:00,53.3,34.1,30.33,ESE,120,4.0,15.0,48,0.00,,,0.00,Wunderground v.1.15,2013-04-15 19:10:00,
2013-04-15 15:20:00,53.2,32.4,30.33,ESE,103,4.0,15.0,45,0.00,,,0.00,Wunderground v.1.15,2013-04-15 19:20:00,
2013-04-15 15:25:00,53.0,32.8,30.32,ESE,121,4.0,15.0,46,0.00,,,0.00,Wunderground v.1.15,2013-04-15 19:25:00,
2013-04-15 15:30:00,53.2,32.9,30.32,East,82,4.0,4.0,46,0.00,,,0.00,Wunderground v.1.15,2013-04-15 19:30:00,
2013-04-15 15:40:00,53.4,33.1,30.32,East,101,4.0,15.0,46,0.00,,,0.00,Wunderground v.1.15,2013-04-15 19:40:00,
2013-04-15 15:50:00,53.2,32.9,30.32,SE,138,4.0,15.0,46,0.00,,,0.00,Wunderground v.1.15,2013-04-15 19:50:00,
2013-04-15 16:00:00,53.2,32.9,30.32,East,94,5.0,15.0,46,0.00,,,0.00,Wunderground v.1.15,2013-04-15 20:00:00,
2013-04-15 16:05:00,53.2,32.9,30.32,East,100,5.0,15.0,46,0.00,,,0.00,Wunderground v.1.15,2013-04-15 20:05:00,
2013-04-15 16:10:00,52.8,33.6,30.32,ENE,73,5.0,15.0,48,0.00,,,0.00,Wunderground v.1.15,2013-04-15 20:10:00,
2013-04-15 16:15:00,53.0,33.3,30.31,SSE,163,5.0,15.0,47,0.00,,,0.00,Wunderground v.1.15,2013-04-15 20:15:00,
2013-04-15 16:20:00,53.6,33.8,30.31,East,101,3.0,15.0,47,0.00,,,0.00,Wunderground v.1.15,2013-04-15 20:20:00,
2013-04-15 16:25:00,53.5,33.2,30.32,SE,129,3.0,15.0,46,0.00,,,0.00,Wunderground v.1.15,2013-04-15 20:25:00,
2013-04-15 16:30:00,53.2,32.9,30.32,ESE,116,4.0,4.0,46,0.00,,,0.00,Wunderground v.1.15,2013-04-15 20:30:00,
2013-04-15 16:40:00,52.9,32.7,30.32,ESE,114,4.0,4.0,46,0.00,,,0.00,Wunderground v.1.15,2013-04-15 20:40:00,
2013-04-15 16:45:00,53.4,32.6,30.32,East,88,3.0,5.0,45,0.00,,,0.00,Wunderground v.1.15,2013-04-15 20:45:00,
2013-04-15 16:50:00,53.0,32.2,30.32,ESE,122,5.0,15.0,45,0.00,,,0.00,Wunderground v.1.15,2013-04-15 20:50:00,
2013-04-15 17:00:00,52.8,32.6,30.32,SE,128,5.0,5.0,46,0.00,,,0.00,Wunderground v.1.15,2013-04-15 21:00:00,
2013-04-15 17:10:00,52.6,31.8,30.32,East,101,4.0,4.0,45,0.00,,,0.00,Wunderground v.1.15,2013-04-15 21:10:00,
2013-04-15 17:15:00,52.3,32.1,30.32,ESE,114,5.0,6.0,46,0.00,,,0.00,Wunderground v.1.15,2013-04-15 21:15:00,
2013-04-15 17:25:00,52.3,32.1,30.32,SE,134,4.0,15.0,46,0.00,,,0.00,Wunderground v.1.15,2013-04-15 21:25:00,
2013-04-15 17:35:00,52.5,32.3,30.32,ESE,110,2.0,15.0,46,0.00,,,0.00,Wunderground v.1.15,2013-04-15 21:35:00,
2013-04-15 17:45:00,52.0,32.4,30.32,SE,141,3.0,15.0,47,0.00,,,0.00,Wunderground v.1.15,2013-04-15 21:45:00,
2013-04-15 17:55:00,52.0,31.8,30.33,SE,131,3.0,15.0,46,0.00,,,0.00,Wunderground v.1.15,2013-04-15 21:55:00,
2013-04-15 18:05:00,51.4,30.7,30.34,ESE,122,2.0,5.0,45,0.00,,,0.00,Wunderground v.1.15,2013-04-15 22:05:00,
2013-04-15 18:15:00,51.0,30.9,30.34,SE,125,3.0,15.0,46,0.00,,,0.00,Wunderground v.1.15,2013-04-15 22:15:00,
2013-04-15 18:25:00,50.5,31.5,30.34,South,173,3.0,15.0,48,0.00,,,0.00,Wunderground v.1.15,2013-04-15 22:25:00,
2013-04-15 18:35:00,50.2,32.3,30.35,ESE,120,2.0,15.0,50,0.00,,,0.00,Wunderground v.1.15,2013-04-15 22:35:00,
2013-04-15 18:45:00,49.9,32.5,30.35,SE,140,1.0,15.0,51,0.00,,,0.00,Wunderground v.1.15,2013-04-15 22:45:00,
2013-04-15 18:55:00,49.4,31.5,30.35,ESE,120,1.0,15.0,50,0.00,,,0.00,Wunderground v.1.15,2013-04-15 22:55:00,
2013-04-15 19:05:00,49.0,31.6,30.35,South,169,1.0,15.0,51,0.00,,,0.00,Wunderground v.1.15,2013-04-15 23:05:00,
2013-04-15 19:15:00,48.6,32.2,30.35,SE,137,0.0,15.0,53,0.00,,,0.00,Wunderground v.1.15,2013-04-15 23:15:00,
2013-04-15 19:25:00,48.2,32.3,30.36,SE,131,1.0,15.0,54,0.00,,,0.00,Wunderground v.1.15,2013-04-15 23:25:00,
2013-04-15 19:35:00,47.7,32.3,30.36,SE,131,0.0,15.0,55,0.00,,,0.00,Wunderground v.1.15,2013-04-15 23:35:00,
2013-04-15 19:45:00,47.0,32.1,30.36,SE,131,0.0,15.0,56,0.00,,,0.00,Wunderground v.1.15,2013-04-15 23:45:00,
2013-04-15 19:55:00,46.5,32.1,30.36,South,173,0.0,15.0,57,0.00,,,0.00,Wunderground v.1.15,2013-04-15 23:55:00,
2013-04-15 20:05:00,46.2,33.1,30.36,SE,129,1.0,15.0,60,0.00,,,0.00,Wunderground v.1.15,2013-04-16 00:05:00,
2013-04-15 20:15:00,45.7,32.6,30.36,SE,131,1.0,15.0,60,0.00,,,0.00,Wunderground v.1.15,2013-04-16 00:15:00,
2013-04-15 20:25:00,45.2,33.7,30.36,SE,128,1.0,15.0,64,0.00,,,0.00,Wunderground v.1.15,2013-04-16 00:25:00,
2013-04-15 20:35:00,44.9,33.5,30.37,SE,124,1.0,15.0,64,0.00,,,0.00,Wunderground v.1.15,2013-04-16 00:35:00,
2013-04-15 20:45:00,44.7,34.0,30.37,SE,133,2.0,15.0,66,0.00,,,0.00,Wunderground v.1.15,2013-04-16 00:45:00,
2013-04-15 20:55:00,44.5,34.6,30.38,SE,139,1.0,15.0,68,0.00,,,0.00,Wunderground v.1.15,2013-04-16 00:55:00,
2013-04-15 21:05:00,44.1,35.6,30.38,SE,139,1.0,15.0,72,0.00,,,0.00,Wunderground v.1.15,2013-04-16 01:05:00,
2013-04-15 21:15:00,43.8,36.0,30.39,ESE,120,1.0,15.0,74,0.00,,,0.00,Wunderground v.1.15,2013-04-16 01:15:00,
2013-04-15 21:25:00,43.3,35.9,30.39,SSE,157,1.0,15.0,75,0.00,,,0.00,Wunderground v.1.15,2013-04-16 01:25:00,
2013-04-15 21:35:00,42.9,36.2,30.38,SE,133,1.0,15.0,77,0.00,,,0.00,Wunderground v.1.15,2013-04-16 01:35:00,
2013-04-15 21:45:00,42.6,36.2,30.39,SE,134,1.0,15.0,78,0.00,,,0.00,Wunderground v.1.15,2013-04-16 01:45:00,
2013-04-15 21:55:00,42.3,36.3,30.39,SE,137,0.0,15.0,79,0.00,,,0.00,Wunderground v.1.15,2013-04-16 01:55:00,
2013-04-15 22:05:00,41.9,36.2,30.39,SSE,161,0.0,15.0,80,0.00,,,0.00,Wunderground v.1.15,2013-04-16 02:05:00,
2013-04-15 22:15:00,41.3,36.2,30.39,SSE,160,0.0,15.0,82,0.00,,,0.00,Wunderground v.1.15,2013-04-16 02:15:00,
2013-04-15 22:25:00,41.0,36.2,30.39,SSE,160,0.0,15.0,83,0.00,,,0.00,Wunderground v.1.15,2013-04-16 02:25:00,
2013-04-15 22:35:00,40.7,36.2,30.39,SSE,153,0.0,15.0,84,0.00,,,0.00,Wunderground v.1.15,2013-04-16 02:35:00,
2013-04-15 22:40:00,40.7,36.5,30.39,SE,135,0.0,15.0,85,0.00,,,0.00,Wunderground v.1.15,2013-04-16 02:40:00,
2013-04-15 22:50:00,40.7,36.5,30.39,SE,136,0.0,15.0,85,0.00,,,0.00,Wunderground v.1.15,2013-04-16 02:50:00,
2013-04-15 22:55:00,40.6,36.7,30.39,SE,136,0.0,15.0,86,0.00,,,0.00,Wunderground v.1.15,2013-04-16 02:55:00,
2013-04-15 23:05:00,40.5,37.2,30.39,SSE,152,0.0,15.0,88,0.00,,,0.00,Wunderground v.1.15,2013-04-16 03:05:00,
2013-04-15 23:15:00,40.3,37.3,30.39,SSE,152,0.0,15.0,89,0.00,,,0.00,Wunderground v.1.15,2013-04-16 03:15:00,
2013-04-15 23:20:00,40.1,37.1,30.40,SSE,152,0.0,15.0,89,0.00,,,0.00,Wunderground v.1.15,2013-04-16 03:20:00,
2013-04-15 23:30:00,39.9,37.2,30.40,SE,144,0.0,15.0,90,0.00,,,0.00,Wunderground v.1.15,2013-04-16 03:30:00,
2013-04-15 23:40:00,39.5,36.8,30.40,SE,144,0.0,15.0,90,0.00,,,0.00,Wunderground v.1.15,2013-04-16 03:40:00,
2013-04-15 23:50:00,39.1,36.4,30.40,SE,143,0.0,15.0,90,0.00,,,0.00,Wunderground v.1.15,2013-04-16 03:50:00,